"Pseudo-MPEC" for P115WcM

Created 2020 Sep 19 11:07:26 UT using Find_Orb

Click here for an explanation of pseudo-MPECs

 
 Astrometry: 
     P115WcM  C2020 09 106'1%JA$=e5L%-M7Q@^$Acl?$$jK1$RG,cM0^+N$uT)(']sY#17yuF51
     P115WcM  C2020 09 10]rybJsAu'?k$-s((N1dUn]hKo%Jjcwi%9mx4pMoiOam]4u?b`*r.F51
     P115WcM  C2020 09 10g`Z6Astrometry@^Z][IbOq:cAhY0qt$T.SNqnXCy]66#Op`0t9EF51
     P115WcM  C2020 09 13=#f_\vV0Teb95VK2X$pI:sxe4b968-%$F;TWKcviKiY[:kma35:RF51
     P115WcM  C2020 09 13I#E9Y]!8aG-o$redacted;XXT!]C4]Z2Vu(i0Cu3@M3#NKOX3.jFF51
     P115WcM  C2020 09 13bk),ZC:hy5pBmq3m7:ZnB+2rcSFBy)N3+clickLMsKDH7?*+1De%F51
     P115WcM ^C2020 09 14.35554321 18 06.430-29 56 42.26   ~9ELq 22.31GVNEOCP568
     P115WcM ^C2020 09 14.35672321 18 06.584-29 56 39.59   ~9ELq 22.29GVNEOCP568
     P115WcM ^C2020 09 14.35790221 18 06.741-29 56 36.83   ~9ELq 22.32GVNEOCP568
     P115WcM  C2020 09 15gKl9hl?Bl;uOj.55bA+,CD=,)(*HaKsSdby]^Ey3uiud_dLZIYXKF51
     P115WcM  C2020 09 15WO1`Wbg6L,RKijKh#F1RdJp6_?I=kl@#r]Ahere:sGF%sfor5oDXF51
     P115WcM  C2020 09 18LDi$.:texplanationxS9p^\;Ws3:nMgMl5=a3u31ks2?Ke2M5q0F52

Station data:
(568) Mauna Kea  (N19.826116 W155.472200)  US/Hawaii.
(F51) Pan-STARRS 1, Haleakala  (N20.707235 W156.255910)  US/Hawaii.
   Observers N. Primak, A. Schultz, S. Watters, J. Thiel, T. Goggia. Measurer
   PS1 Science Consortium. 1.8-m Ritchey-Chrétien + CCD.
(F52) Pan-STARRS 2, Haleakala  (N20.707384 W156.255910)  US/Hawaii. 1.8-m
   Ritchey-Chrétien + CCD.

Orbital elements:  P115WcM
   Perihelion 2020 Sep 3.924644 +/- 0.033 TT = 22:11:29 (JD 2459096.424644)
Epoch 2020 Sep 18.0 TT = JDT 2459110.5   Earth MOID: 0.2210   Ma: 0.0605
M   4.21307973 +/- 0.06             (J2000 ecliptic)          AutoNEOCP
n   0.29932313 +/- 0.00415          Peri.  320.63228 +/- 0.06
a   2.21331144 +/- 0.0205           Node    13.95566 +/- 0.07
e   0.4491450 +/- 0.0044            Incl.    5.92901 +/- 0.038
P   3.29                   H 23.8   G  0.15   U  9.1  
q 1.21921354 +/- 0.00155    Q 3.20740933 +/- 0.0401
From 12 observations 2020 Sept. 10-18; mean residual 0".17
Residuals in arcseconds: 
200910 F51  .07-  .37-    200913 F51  .06-  .03-    200914 568  .04-  .03-    
200910 F51  .12+  .34+    200913 F51  .11-  .05+    200915 F51  .49+  .25+    
200910 F51  .05+  .03+    200914 568  .06-  .02-    200915 F51  .08-  .12-    
200913 F51  .14-  .02-    200914 568  .07-  .07-    200918 F52  .06-  .03-    

Ephemerides (geocentric):
Date (UTC) HH   RA              Dec         delta   r     elong  mag " sig PA
---- -- -- --  -------------   -----------  ------ ------ -----  --- ---- ---
2020 09 19 11  21 30 34.540   -26 38 33.48  .28212 1.2299 138.5 22.9 .375 119
2020 09 19 12  21 30 40.663   -26 36 55.65  .28222 1.2300 138.4 22.9 .384 119
2020 09 19 13  21 30 46.787   -26 35 17.82  .28231 1.2300 138.4 22.9 .393 119
2020 09 19 14  21 30 52.910   -26 33 39.98  .28241 1.2301 138.4 22.9 .402 119
2020 09 19 15  21 30 59.034   -26 32 02.13  .28251 1.2301 138.4 22.9 .411 120
2020 09 19 16  21 31 05.158   -26 30 24.27  .28261 1.2302 138.4 22.9 .421 120
2020 09 19 17  21 31 11.282   -26 28 46.41  .28271 1.2303 138.4 22.9 .430 120
2020 09 19 18  21 31 17.406   -26 27 08.53  .28281 1.2303 138.4 22.9 .439 120
2020 09 19 19  21 31 23.530   -26 25 30.65  .28291 1.2304 138.4 22.9 .449 120
2020 09 19 20  21 31 29.654   -26 23 52.77  .28301 1.2304 138.4 22.9 .459 121
2020 09 19 21  21 31 35.778   -26 22 14.87  .28311 1.2305 138.4 22.9 .468 121
2020 09 19 22  21 31 41.902   -26 20 36.97  .28321 1.2306 138.4 22.9 .478 121
2020 09 19 23  21 31 48.027   -26 18 59.07  .28331 1.2306 138.4 22.9 .488 121
2020 09 20 00  21 31 54.151   -26 17 21.15  .28341 1.2307 138.4 22.9 .498 121
2020 09 20 01  21 32 00.276   -26 15 43.23  .28351 1.2307 138.4 22.9 .508 121
2020 09 20 02  21 32 06.400   -26 14 05.31  .28361 1.2308 138.4 22.9 .518 121
2020 09 20 03  21 32 12.525   -26 12 27.38  .28371 1.2308 138.4 22.9 .528 122
2020 09 20 04  21 32 18.649   -26 10 49.44  .28381 1.2309 138.4 22.9 .539 122
2020 09 20 05  21 32 24.774   -26 09 11.50  .28391 1.2310 138.4 22.9 .549 122
2020 09 20 06  21 32 30.899   -26 07 33.55  .28402 1.2310 138.4 22.9 .559 122
2020 09 20 07  21 32 37.024   -26 05 55.60  .28412 1.2311 138.3 22.9 .570 122
2020 09 20 08  21 32 43.148   -26 04 17.64  .28422 1.2311 138.3 22.9 .581 122
2020 09 20 09  21 32 49.273   -26 02 39.67  .28432 1.2312 138.3 22.9 .591 122
2020 09 20 10  21 32 55.398   -26 01 01.71  .28443 1.2313 138.3 22.9 .602 122
2020 09 20 11  21 33 01.523   -25 59 23.73  .28453 1.2313 138.3 22.9 .613 122
2020 09 20 12  21 33 07.648   -25 57 45.75  .28463 1.2314 138.3 22.9 .624 123
2020 09 20 13  21 33 13.773   -25 56 07.77  .28473 1.2314 138.3 22.9 .635 123
2020 09 20 14  21 33 19.898   -25 54 29.79  .28484 1.2315 138.3 22.9 .646 123
2020 09 20 15  21 33 26.023   -25 52 51.80  .28494 1.2316 138.3 22.9 .657 123
2020 09 20 16  21 33 32.148   -25 51 13.81  .28504 1.2316 138.3 22.9 .668 123
2020 09 20 17  21 33 38.272   -25 49 35.81  .28515 1.2317 138.3 22.9 .679 123
2020 09 20 18  21 33 44.397   -25 47 57.81  .28525 1.2318 138.3 22.9 .691 123
2020 09 20 19  21 33 50.522   -25 46 19.80  .28536 1.2318 138.3 22.9 .702 123
2020 09 20 20  21 33 56.647   -25 44 41.80  .28546 1.2319 138.3 22.9 .713 123
2020 09 20 21  21 34 02.772   -25 43 03.79  .28557 1.2319 138.3 22.9 .725 123
2020 09 20 22  21 34 08.897   -25 41 25.78  .28567 1.2320 138.3 22.9 .737 123
2020 09 20 23  21 34 15.021   -25 39 47.76  .28578 1.2321 138.3 22.9 .748 123
2020 09 21 00  21 34 21.146   -25 38 09.74  .28588 1.2321 138.3 22.9 .760 123
2020 09 21 01  21 34 27.271   -25 36 31.72  .28599 1.2322 138.2 22.9 .772 123
2020 09 21 02  21 34 33.395   -25 34 53.70  .28609 1.2323 138.2 22.9 .784 123
2020 09 21 03  21 34 39.520   -25 33 15.68  .28620 1.2323 138.2 22.9 .796 123
2020 09 21 04  21 34 45.645   -25 31 37.65  .28631 1.2324 138.2 22.9 .808 124
2020 09 21 05  21 34 51.769   -25 29 59.63  .28641 1.2324 138.2 22.9 .820 124
2020 09 21 06  21 34 57.894   -25 28 21.60  .28652 1.2325 138.2 22.9 .833 124
2020 09 21 07  21 35 04.018   -25 26 43.57  .28663 1.2326 138.2 22.9 .845 124
2020 09 21 08  21 35 10.142   -25 25 05.54  .28673 1.2326 138.2 22.9 .857 124
2020 09 21 09  21 35 16.266   -25 23 27.51  .28684 1.2327 138.2 22.9 .870 124
2020 09 21 10  21 35 22.390   -25 21 49.47  .28695 1.2328 138.2 22.9 .882 124